Lakeville, MN

4:43 AM CST on December 09, 2016 (GMT -0600)
Airlake

Weather History for KLVN - July, 2012

Change the Weather History Date:

Saturday, July 7, 2012

  Actual Average Record
Temperature  
Mean Temperature 72 °F -  
Max Temperature 82 °F 83 °F 98 °F (1988)
Min Temperature 62 °F 61 °F 42 °F (1984)
Cooling Degree Days 7    
Growing Degree Days 22 (Base 50)    
Moisture  
Dew Point 61 °F    
Average Humidity 71    
Maximum Humidity 100    
Minimum Humidity 45    
Precipitation  
Precipitation 0.01 in - - ()
Sea Level Pressure  
Sea Level Pressure 30.10 in    
Wind  
Wind Speed 8 mph (NNE)    
Max Wind Speed 14 mph    
Max Gust Speed 18 mph    
Visibility 10 miles    
Events Rain    
Averages and records for this station are not official NWS values.
T = Trace of Precipitation, MM = Missing Value Source: NWS Daily Summary

Daily Weather History Graph

Daily Weather History Graph

Search for Another Location

Airport or City:

Trip Planner

Search our weather history database for the weather conditions in past years. The results will help you decide how hot, cold, wet, or windy it might be!

Date:

Astronomy

Jul. 07, 2012 Rise Set
Actual Time 5:35 AM CDT 8:59 PM CDT
Civil Twilight 4:59 AM CDT 9:36 PM CDT
Nautical Twilight 4:11 AM CDT 10:23 PM CDT
Astronomical Twilight 3:11 AM CDT 11:23 PM CDT
Moon 11:04 PM CDT (7/7) 10:13 AM CDT (7/7)
Length of Visible Light 16h 36m
Length of Day
15h 24m
Waning Gibbous, 81% of the Moon is Illuminated
Jul 7
Waning Gibbous
Jul 10
Last Quarter
Jul 18
New
Jul 26
First Quarter
Aug 1
Full

Hourly Weather History & Observations

Time (CDT) Temp. Heat Index Dew Point Humidity Pressure Visibility Wind Dir Wind Speed Gust Speed Precip Events Conditions
12:11 AM 69.8 °F - 64.4 °F 83% 30.02 in 7.0 mi NE 8.1 mph - 0.01 in Rain Rain
12:31 AM 66.2 °F - 64.4 °F 94% 30.00 in 10.0 mi East 5.8 mph - 0.01 in   Mostly Cloudy
12:51 AM 66.2 °F - 64.4 °F 94% 30.02 in 10.0 mi Calm Calm - 0.01 in   Scattered Clouds
1:11 AM 66.2 °F - 66.2 °F 100% 30.02 in 10.0 mi North 8.1 mph - N/A   Overcast
1:51 AM 66.2 °F - 66.2 °F 100% 30.02 in 7.0 mi North 5.8 mph - N/A   Overcast
2:11 AM 66.2 °F - 64.4 °F 94% 30.02 in 10.0 mi North 6.9 mph - N/A   Overcast
2:31 AM 64.4 °F - 64.4 °F 100% 30.03 in 10.0 mi NNE 10.4 mph - N/A   Overcast
2:51 AM 64.4 °F - 62.6 °F 94% 30.03 in 10.0 mi North 10.4 mph - N/A   Overcast
3:11 AM 64.4 °F - 62.6 °F 94% 30.03 in 10.0 mi North 8.1 mph - N/A   Overcast
3:31 AM 64.4 °F - 60.8 °F 88% 30.04 in 10.0 mi North 10.4 mph - N/A   Overcast
3:51 AM 64.4 °F - 60.8 °F 88% 30.04 in 10.0 mi North 6.9 mph - N/A   Overcast
4:11 AM 64.4 °F - 60.8 °F 88% 30.04 in 10.0 mi North 11.5 mph - N/A   Mostly Cloudy
4:31 AM 64.4 °F - 60.8 °F 88% 30.05 in 10.0 mi North 6.9 mph - N/A   Mostly Cloudy
4:51 AM 64.4 °F - 60.8 °F 88% 30.07 in 10.0 mi North 6.9 mph - N/A   Mostly Cloudy
5:11 AM 62.6 °F - 60.8 °F 94% 30.07 in 10.0 mi North 11.5 mph - N/A   Mostly Cloudy
5:31 AM 62.6 °F - 60.8 °F 94% 30.07 in 10.0 mi North 8.1 mph - N/A   Mostly Cloudy
5:51 AM 62.6 °F - 60.8 °F 94% 30.08 in 10.0 mi North 8.1 mph 17.3 mph N/A   Scattered Clouds
6:11 AM 62.6 °F - 60.8 °F 94% 30.08 in 10.0 mi NNE 9.2 mph - N/A   Scattered Clouds
6:30 AM 62.6 °F - 60.8 °F 94% 30.09 in 10.0 mi North 9.2 mph - N/A   Mostly Cloudy
6:51 AM 62.6 °F - 59.0 °F 88% 30.09 in 10.0 mi North 9.2 mph - N/A   Mostly Cloudy
7:11 AM 64.4 °F - 60.8 °F 88% 30.11 in 10.0 mi North 10.4 mph - N/A   Overcast
7:30 AM 64.4 °F - 60.8 °F 88% 30.11 in 10.0 mi North 9.2 mph - N/A   Overcast
7:51 AM 64.4 °F - 60.8 °F 88% 30.11 in 10.0 mi NNE 10.4 mph - N/A   Mostly Cloudy
8:11 AM 64.4 °F - 59.0 °F 83% 30.11 in 10.0 mi NNE 11.5 mph 16.1 mph N/A   Scattered Clouds
8:31 AM 64.4 °F - 59.0 °F 83% 30.12 in 10.0 mi NNE 9.2 mph - N/A   Clear
8:51 AM 66.2 °F - 60.8 °F 83% 30.11 in 10.0 mi NE 8.1 mph - N/A   Clear
9:11 AM 66.2 °F - 59.0 °F 78% 30.11 in 10.0 mi NNE 10.4 mph - N/A   Clear
9:31 AM 66.2 °F - 59.0 °F 78% 30.12 in 10.0 mi NNE 9.2 mph - N/A   Clear
9:51 AM 66.2 °F - 59.0 °F 78% 30.12 in 10.0 mi NNE 10.4 mph - N/A   Clear
10:11 AM 69.8 °F - 60.8 °F 73% 30.13 in 10.0 mi NNE 10.4 mph - N/A   Clear
10:31 AM 71.6 °F - 60.8 °F 69% 30.13 in 10.0 mi NE 10.4 mph - N/A   Clear
10:51 AM 73.4 °F - 60.8 °F 65% 30.13 in 10.0 mi NNE 11.5 mph - N/A   Clear
11:11 AM 73.4 °F - 62.6 °F 69% 30.13 in 10.0 mi NE 10.4 mph - N/A   Clear
11:31 AM 75.2 °F - 62.6 °F 65% 30.13 in 10.0 mi NNE 10.4 mph 17.3 mph N/A   Clear
11:51 AM 75.2 °F - 62.6 °F 65% 30.13 in 10.0 mi NNE 11.5 mph - N/A   Clear
12:11 PM 77.0 °F - 60.8 °F 57% 30.14 in 10.0 mi NE 10.4 mph - N/A   Clear
12:31 PM 77.0 °F - 60.8 °F 57% 30.14 in 10.0 mi NNE 10.4 mph 16.1 mph N/A   Clear
12:51 PM 78.8 °F - 60.8 °F 54% 30.14 in 10.0 mi NNE 9.2 mph - N/A   Clear
1:11 PM 78.8 °F - 60.8 °F 54% 30.13 in 10.0 mi NE 10.4 mph 17.3 mph N/A   Clear
1:31 PM 78.8 °F - 60.8 °F 54% 30.13 in 10.0 mi NNE 11.5 mph - N/A   Clear
1:51 PM 80.6 °F 81.5 °F 60.8 °F 51% 30.12 in 10.0 mi NNE 12.7 mph - N/A   Clear
2:11 PM 80.6 °F 81.5 °F 60.8 °F 51% 30.12 in 10.0 mi North 12.7 mph - N/A   Clear
2:31 PM 80.6 °F 81.5 °F 60.8 °F 51% 30.12 in 10.0 mi NNE 11.5 mph - N/A   Clear
2:51 PM 80.6 °F 81.8 °F 62.6 °F 54% 30.12 in 10.0 mi North 10.4 mph - N/A   Clear
3:11 PM 80.6 °F 81.8 °F 62.6 °F 54% 30.11 in 10.0 mi NNE 13.8 mph 18.4 mph N/A   Clear
3:31 PM 82.4 °F 83.4 °F 62.6 °F 51% 30.11 in 10.0 mi NE 9.2 mph 18.4 mph N/A   Clear
3:51 PM 80.6 °F 81.5 °F 60.8 °F 51% 30.11 in 10.0 mi NNE 13.8 mph 18.4 mph N/A   Clear
4:11 PM 80.6 °F 81.5 °F 60.8 °F 51% 30.11 in 10.0 mi NE 10.4 mph 16.1 mph N/A   Clear
4:31 PM 80.6 °F 81.5 °F 60.8 °F 51% 30.11 in 10.0 mi NE 10.4 mph - N/A   Clear
4:51 PM 82.4 °F 82.9 °F 60.8 °F 48% 30.11 in 10.0 mi North 13.8 mph 18.4 mph N/A   Scattered Clouds
5:11 PM 82.4 °F 82.9 °F 60.8 °F 48% 30.11 in 10.0 mi NNE 10.4 mph - N/A   Scattered Clouds
5:31 PM 80.6 °F 81.5 °F 60.8 °F 51% 30.10 in 10.0 mi NE 10.4 mph - N/A   Clear
5:51 PM 80.6 °F 80.8 °F 57.2 °F 45% 30.10 in 10.0 mi NNE 9.2 mph - N/A   Clear
6:11 PM 80.6 °F 81.5 °F 60.8 °F 51% 30.11 in 10.0 mi NE 9.2 mph - N/A   Scattered Clouds
6:30 PM 80.6 °F 81.1 °F 59.0 °F 48% 30.11 in 10.0 mi NE 9.2 mph - N/A   Scattered Clouds
6:51 PM 80.6 °F 80.8 °F 57.2 °F 45% 30.11 in 10.0 mi NNE 9.2 mph - N/A   Clear
7:11 PM 80.6 °F 81.1 °F 59.0 °F 48% 30.11 in 10.0 mi NE 8.1 mph - N/A   Clear
7:51 PM 78.8 °F - 57.2 °F 47% 30.10 in 10.0 mi NE 9.2 mph - N/A   Clear
8:31 PM 77.0 °F - 57.2 °F 50% 30.11 in 10.0 mi NE 5.8 mph - N/A   Clear
8:51 PM 75.2 °F - 57.2 °F 53% 30.12 in 10.0 mi NNE 5.8 mph - N/A   Clear
9:11 PM 75.2 °F - 59.0 °F 57% 30.13 in 10.0 mi North 3.5 mph - N/A   Clear
9:31 PM 73.4 °F - 57.2 °F 57% 30.13 in 10.0 mi North 4.6 mph - N/A   Clear
9:51 PM 73.4 °F - 55.4 °F 53% 30.14 in 10.0 mi North 3.5 mph - N/A   Clear
10:11 PM 71.6 °F - 55.4 °F 57% 30.14 in 10.0 mi Calm Calm - N/A   Clear
10:31 PM 71.6 °F - 55.4 °F 57% 30.14 in 10.0 mi North 3.5 mph - N/A   Clear
10:51 PM 69.8 °F - 57.2 °F 64% 30.14 in 10.0 mi Calm Calm - N/A   Clear
11:31 PM 64.4 °F - 59.0 °F 83% 30.14 in 7.0 mi Calm Calm - N/A   Clear
11:51 PM 62.6 °F - 59.0 °F 88% 30.14 in 10.0 mi Calm Calm - N/A   Clear